Погода в Кышике

Россия / Ханты-Мансийский автономный округ - Югра     61°26′56″N   68°56′12″E
темп.,
°C
ветер,
м/с
пор.,
м/с
влажн.,
%
обл.,
%
осадки,
мм/ч
давл.,
гПа
погр.,
м
13 мая, чт
чт1323:00+9юз2494100 0.8 1020172
02:00+9зюз2894100 0.4 1018240
05:00+10з2393100 0.5 101874
08:00+14ссз597321 0.0 1018794
11:00+16ссз694597 0.0 10201477
14:00+16ссв57407 0.0 10221704
17:00+15ссв454495 0.0 10251312
20:00+12в12525 0.0 102517
14 мая, пт
пт1423:00+9ююв23570 0.0 102557
02:00+7ю39640 0.0 1024178
05:00+8ююз412660 0.0 1023295
08:00+14юз6145124 0.0 1019485
11:00+22зюз611443 0.1 1016864
14:00+27зсз712305 0.0 10143333
17:00+24сз4103927 0.0 1014760
20:00+18зюз23657 0.3 101360
15 мая, сб
сб1523:00+16юз228380 3.7 101336
02:00+15зсз31079100 0.2 1013281
05:00+15зюз3128473 0.3 1012438
08:00+19з487080 0.0 1012756
11:00+21сз4756100 0.0 10121593
14:00+13ссв3477100 0.5 1014331
17:00+16всв23685 1.2 1015523
20:00+14св3474100 0.0 1016211
16 мая, вс
вс1623:00+10всв247992 0.0 1017284
02:00+7всв22879 0.0 101856
05:00+8в1284100 0.0 101884
08:00+12юв3369100 0.0 1017385
11:00+18ю4656100 0.0 1015862
14:00+25ююз41041100 0.0 10102213
17:00+27з61431100 0.0 10072884
20:00+22зюз234831 0.0 100639
17 мая, пн
пн1723:00+14ююз228692 0.7 100836
02:00+14юз399366 1.3 1007182
05:00+15зюз41278100 1.4 1006310
08:00+19зсз51066100 0.0 1007777
11:00+23з6104722 0.0 10072074
14:00+23ссз5944100 0.0 10061840
17:00+18сз377091 0.3 1007486
20:00+15с4779100 0.1 1008459